Theta_e
334 335 336 334 332 332 331 328 319 316 325 332 331 329 331 331 329 331 331 332 332 332 332 330 330 331 329 330 329 329 329 328 329 330 329 329 328 323 317 316 317 314 313 312 309 308 307 307 308 308 308 308 306 305 305 305 304 305 305 305 305 305 305 305 305 305 306 306 305 305 306 307 308 310 312 314 315 316 317 317 318 319 319 319 318
336 336 336 335 334 332 331 331 327 324 328 333 332 330 332 331 329 331 331 332 333 332 332 331 329 330 329 329 330 331 329 327 329 330 330 327 324 320 316 315 317 316 315 313 312 311 310 310 311 312 312 312 311 310 309 308 306 306 305 305 304 304 304 304 305 305 305 306 307 308 311 313 315 317 318 319 320 320 320 320 320 321 321 321 320
336 336 336 336 334 332 331 330 329 328 329 332 332 331 332 331 331 332 332 333 334 333 332 332 330 329 330 327 328 330 329 329 330 331 330 326 322 320 317 316 316 316 316 315 314 313 312 313 313 315 315 315 315 314 315 314 312 311 310 309 309 309 309 310 310 311 311 312 314 316 318 319 320 321 321 321 321 321 322 323 323 323 323 323 322
335 335 335 336 333 330 331 330 329 328 329 332 332 332 333 333 333 333 333 334 335 334 333 333 331 330 330 327 328 331 330 330 331 331 331 328 324 322 320 319 317 316 316 315 314 313 313 314 314 316 316 317 317 317 318 317 316 316 316 316 316 316 316 317 318 318 319 319 320 320 321 321 321 322 322 322 322 323 323 324 325 325 325 324 324
334 334 334 335 333 331 332 332 330 328 329 332 332 332 333 333 334 334 334 335 335 335 334 333 332 330 330 329 330 331 331 331 331 331 331 331 329 325 323 322 321 319 318 317 316 315 314 314 315 316 316 317 318 318 318 318 319 319 319 319 319 320 320 320 320 321 321 321 321 321 322 323 323 324 324 324 324 325 325 325 326 327 327 327 326
333 334 334 334 334 334 334 332 331 330 330 331 332 333 334 334 334 334 334 334 335 335 334 334 333 331 330 331 331 331 331 331 331 331 331 332 332 330 328 326 325 323 322 320 320 319 317 317 316 316 317 317 318 318 319 319 320 320 320 320 320 320 320 320 320 320 320 320 321 322 324 325 325 325 325 325 325 326 327 327 327 328 329 329 328
333 334 334 334 334 335 335 334 333 333 333 333 333 334 335 336 335 335 335 334 335 335 334 334 334 332 331 331 331 331 332 332 331 332 331 332 332 332 332 330 329 328 326 324 324 322 322 321 320 319 318 318 317 318 318 319 320 320 319 320 320 320 319 319 320 320 321 321 323 324 326 327 327 326 326 326 327 327 329 329 329 329 329 330 330
333 334 334 335 334 335 336 335 335 335 335 334 335 335 334 336 336 335 336 335 335 335 334 334 334 333 332 331 333 333 334 334 332 332 332 332 332 333 333 332 331 331 330 329 328 327 325 324 323 323 322 321 320 318 318 318 319 319 319 319 320 320 320 320 321 322 322 323 324 325 327 328 327 327 327 328 328 329 330 331 331 330 330 331 331
332 333 333 334 334 334 335 336 335 334 335 333 334 336 334 334 335 335 335 335 335 335 335 334 334 334 333 333 334 334 335 335 335 334 333 332 333 334 334 334 333 332 331 331 331 330 329 329 327 326 325 324 324 323 322 321 320 321 321 321 322 322 322 322 322 323 324 325 326 326 327 328 328 328 329 330 330 330 331 331 332 331 331 331 331
330 329 330 333 334 334 334 335 336 335 334 332 333 337 336 333 333 333 333 333 334 335 334 334 333 333 333 333 334 334 336 336 335 336 335 334 334 334 334 335 335 334 333 332 333 333 332 331 330 329 328 327 327 327 326 326 325 325 324 324 325 325 325 325 325 325 326 327 327 328 328 329 329 329 330 331 331 331 331 332 332 332 332 331 331
330 328 327 330 333 334 334 334 334 335 334 332 332 335 335 334 332 331 331 332 332 332 332 332 332 333 333 334 334 335 336 334 333 335 336 335 335 335 335 335 335 335 335 335 335 334 334 333 332 331 330 329 329 329 329 329 328 328 328 328 328 328 328 328 328 328 329 329 329 329 329 330 330 330 331 331 331 332 332 333 333 333 332 331 332
330 329 326 327 332 335 335 334 334 334 333 331 331 332 333 333 332 331 331 330 331 331 331 332 333 333 332 333 333 334 334 332 332 334 335 335 335 335 335 335 336 336 336 336 336 336 335 335 334 333 332 332 331 331 331 330 330 330 330 330 330 330 330 330 330 330 330 331 331 330 330 330 331 331 331 332 332 332 332 333 333 333 332 332 332
329 329 328 328 332 335 336 334 334 332 331 331 331 331 332 332 331 331 331 330 329 328 330 332 333 332 331 332 331 331 332 331 332 333 335 336 335 335 335 335 336 336 335 336 336 336 336 336 335 334 334 334 334 333 333 332 331 331 331 331 331 331 331 331 331 331 331 332 332 332 332 332 331 332 332 332 332 332 332 332 332 332 332 332 332
328 329 330 330 331 332 332 332 331 329 329 331 332 332 333 332 330 330 330 330 329 327 329 331 332 330 330 332 332 331 331 329 329 330 333 335 335 335 335 335 335 335 335 336 336 336 336 337 336 336 336 336 335 335 334 333 332 331 331 331 331 331 331 332 332 332 332 333 333 333 333 333 332 331 331 331 331 331 331 331 330 331 331 331 331
329 331 330 330 330 329 328 329 329 328 329 331 332 333 332 331 329 328 329 329 329 329 330 332 332 331 331 332 333 332 331 331 329 328 329 332 334 335 335 335 335 335 335 335 335 335 335 336 337 337 337 337 336 336 335 334 334 333 332 331 331 331 331 331 332 332 332 332 333 332 333 332 331 330 329 329 329 329 329 329 329 330 331 331 331
330 330 329 328 328 326 326 326 327 327 328 329 330 330 330 330 329 327 328 329 330 330 331 332 331 331 332 333 333 332 332 334 333 330 328 329 331 332 333 334 334 334 334 334 335 335 335 336 337 337 337 337 337 336 335 335 335 335 334 332 331 331 331 331 332 332 333 333 333 332 333 332 330 329 328 328 327 327 327 328 328 329 330 330 329
329 329 327 326 327 326 327 326 326 326 326 326 326 327 328 329 327 325 326 328 330 331 332 331 329 330 331 332 334 333 333 334 333 330 329 329 330 331 332 333 333 333 334 334 335 334 335 336 337 336 337 338 338 337 336 335 336 336 335 333 332 331 332 333 333 334 334 334 334 333 332 332 330 329 328 327 326 327 327 328 328 328 328 328 327
329 331 329 328 328 328 327 326 326 326 326 326 325 326 327 327 326 325 325 326 328 330 331 331 330 329 329 330 332 332 332 332 333 332 330 329 330 330 331 332 333 334 334 334 333 332 334 337 337 336 337 337 337 336 336 336 335 335 335 333 333 333 333 334 334 334 334 334 334 333 333 332 330 329 328 327 327 327 328 328 328 327 326 326 326
329 332 333 331 331 329 327 327 327 327 327 326 325 327 328 327 326 327 327 327 327 328 330 331 330 329 329 329 329 330 330 330 332 333 332 331 331 331 329 330 332 334 334 334 333 332 335 337 336 335 334 334 334 334 336 338 336 335 335 335 334 334 334 334 334 334 334 334 334 333 332 331 330 330 329 328 328 329 329 328 327 326 325 324 323
332 333 334 333 332 331 329 329 328 328 328 328 328 329 329 329 330 330 330 330 328 328 329 330 329 329 329 330 329 330 330 330 330 332 333 333 332 332 332 330 330 332 332 333 333 333 334 335 334 334 332 332 334 335 336 337 336 336 336 335 334 334 333 333 334 334 334 334 333 332 332 331 331 331 329 328 329 329 328 327 326 324 323 322 320
335 336 335 334 333 332 331 330 329 329 330 331 331 331 331 332 332 332 332 331 330 330 329 329 329 329 330 331 331 331 330 331 331 332 333 333 331 332 333 332 332 331 331 330 330 331 332 332 333 333 333 334 336 337 337 337 337 337 337 336 335 334 333 333 334 334 334 334 333 332 332 332 332 330 329 330 330 328 327 325 323 321 320 318 316
335 336 336 336 335 334 333 332 331 332 332 333 333 333 334 333 332 331 332 332 331 330 330 330 330 329 330 331 331 331 331 332 332 332 334 334 332 332 333 334 333 332 332 331 330 328 328 329 331 333 335 336 337 337 336 334 333 333 334 336 337 335 333 333 333 334 334 333 333 333 333 332 330 329 329 330 329 328 326 323 321 318 316 314 313
334 334 335 336 336 336 335 334 334 334 334 334 334 335 335 334 333 332 332 332 331 330 331 331 331 330 330 330 330 331 332 332 332 331 333 334 334 334 335 335 334 334 334 333 333 331 328 326 328 331 334 335 336 336 334 331 328 326 328 334 337 336 334 333 333 334 333 333 333 332 332 331 329 329 330 329 328 327 326 324 321 319 316 314 312
335 334 332 333 335 336 336 336 336 336 335 334 334 335 334 333 332 332 332 332 331 331 331 332 332 331 330 329 329 329 330 330 330 330 332 334 334 334 334 334 335 335 334 333 334 334 331 328 329 332 333 333 334 334 333 331 328 326 328 334 338 336 334 332 333 334 334 333 333 331 331 330 329 330 329 329 328 328 327 325 323 321 318 315 312
334 333 331 330 331 332 332 333 335 336 335 334 335 335 334 333 333 333 331 331 331 331 331 332 332 332 332 331 330 330 330 330 330 331 332 333 334 334 334 335 335 334 333 333 334 334 334 332 332 333 333 333 333 332 332 332 330 327 328 333 335 333 331 331 332 334 334 333 332 331 331 331 330 330 329 329 328 328 328 326 324 322 318 314 311
332 332 331 330 329 329 328 328 330 333 334 334 335 334 335 335 334 332 330 330 331 332 331 331 331 331 332 332 332 332 332 332 333 333 333 334 334 334 334 334 334 334 333 333 333 333 334 334 333 334 334 332 332 331 331 332 330 327 327 328 330 330 330 331 333 334 334 333 332 331 331 331 330 330 329 329 329 329 328 326 325 321 315 312 310
332 331 330 330 329 328 328 328 328 329 332 333 332 332 333 333 331 331 331 331 332 332 331 331 330 330 331 332 332 332 332 333 334 335 335 335 334 334 334 335 334 334 334 334 334 333 334 335 334 335 334 333 332 331 332 332 329 327 325 325 327 330 331 332 333 333 333 332 332 331 331 331 331 330 329 329 329 329 328 327 325 320 314 310 309
332 331 329 328 329 328 328 329 329 329 330 331 331 330 330 330 329 330 331 331 331 331 330 330 329 329 329 330 331 331 332 332 333 334 335 334 334 334 335 335 335 335 334 334 333 333 334 335 335 334 334 333 332 332 333 332 330 328 326 324 326 330 330 330 331 332 332 332 331 331 332 332 331 330 330 329 329 329 328 327 326 321 313 310 309
333 332 329 327 327 328 328 328 328 329 330 330 330 330 329 330 330 330 329 329 329 328 328 329 329 328 328 328 329 329 330 332 332 333 333 333 333 334 333 333 334 335 335 334 333 332 333 334 334 334 334 333 332 333 333 332 332 331 328 325 326 329 330 329 329 331 331 332 331 330 331 332 331 330 330 329 329 329 328 327 326 322 314 310 308
335 335 333 331 328 327 328 328 327 327 326 326 327 328 329 329 330 330 330 329 329 329 329 329 329 329 329 328 329 329 329 330 331 331 332 333 333 332 332 333 333 334 334 334 334 333 332 332 332 333 333 332 331 333 332 333 334 332 328 325 325 328 329 328 329 330 331 331 329 328 330 331 331 331 330 329 329 329 328 327 327 323 315 310 307
335 336 336 335 332 329 327 327 328 328 326 324 325 327 329 330 330 331 331 331 330 330 330 330 330 330 329 329 329 329 329 329 330 330 331 331 332 331 332 332 333 334 333 334 333 332 332 333 332 333 334 332 331 331 331 333 334 331 329 327 324 327 328 327 329 331 331 331 330 327 328 330 331 331 330 329 329 329 328 328 327 324 316 310 307
334 334 335 334 333 330 327 326 327 328 328 326 325 327 330 331 331 330 330 329 329 329 330 329 329 328 329 329 329 330 330 330 331 331 330 331 331 331 331 332 332 333 332 332 333 331 331 331 332 333 334 332 332 331 330 332 333 331 330 328 325 327 329 327 327 330 331 332 331 328 327 328 330 331 330 329 329 328 328 327 327 325 318 311 307
333 331 330 329 329 330 329 327 325 326 328 328 325 326 328 330 330 329 328 328 327 328 328 329 329 329 330 330 331 331 332 331 331 331 331 331 332 331 331 331 332 332 332 332 332 331 331 331 331 332 333 332 332 332 332 332 333 331 330 328 325 326 328 327 327 329 330 331 331 330 328 328 329 331 331 330 328 328 328 327 327 325 319 312 308
332 330 327 326 328 331 333 331 327 326 328 329 327 326 326 326 326 327 327 326 325 326 328 330 331 331 331 331 331 331 331 332 331 331 331 332 331 331 331 331 332 332 332 332 332 332 331 331 330 332 332 332 330 331 332 332 332 332 330 328 326 326 328 328 328 329 330 331 331 331 330 329 330 331 331 330 328 328 327 327 326 325 321 314 308
333 330 327 327 329 331 333 333 331 329 329 331 331 329 327 326 325 326 326 325 323 325 327 329 329 329 329 330 330 330 331 331 331 331 331 331 330 330 330 331 331 331 332 331 331 331 332 331 330 331 332 332 331 330 331 331 331 331 331 331 329 327 326 326 327 328 330 332 332 332 332 331 330 331 331 329 328 328 328 327 326 326 322 316 310
331 330 328 329 331 331 332 332 331 330 330 332 332 331 330 329 328 327 328 327 325 325 326 326 327 327 328 328 329 329 329 329 329 330 330 330 330 330 330 330 330 330 330 330 330 331 331 330 330 330 330 332 332 331 330 331 331 330 330 331 330 328 326 325 326 327 328 331 332 333 333 331 330 330 330 328 327 327 327 327 327 326 324 319 312
330 330 329 329 331 331 330 329 330 331 331 331 332 332 331 330 330 329 329 328 328 327 327 327 326 326 326 326 327 326 326 326 327 327 327 327 328 329 329 329 329 329 329 329 330 330 330 330 331 330 329 330 332 331 330 331 332 331 330 330 330 330 329 328 328 327 326 327 328 331 333 332 330 330 328 327 327 326 326 327 326 326 324 321 314
331 331 330 329 329 330 328 327 328 330 331 331 331 331 331 330 330 330 329 328 327 327 327 326 325 324 324 323 323 323 323 323 323 323 323 323 323 324 326 327 327 328 329 329 329 329 329 330 330 330 330 330 331 331 330 331 332 331 331 331 331 331 331 331 330 329 328 326 325 328 331 332 330 329 328 326 325 325 325 326 326 325 324 321 316
326 327 330 330 330 329 328 328 328 329 329 329 330 330 330 330 329 328 327 327 326 326 325 324 324 323 322 321 321 321 320 319 319 319 319 319 319 320 321 322 324 325 327 328 329 328 328 329 329 330 329 329 330 331 331 331 332 331 331 331 331 330 332 332 331 330 330 328 326 326 329 332 331 329 327 325 324 324 325 325 325 324 323 321 317
324 324 326 327 329 330 330 329 329 328 328 328 329 329 329 328 328 327 326 325 324 323 322 321 321 321 321 320 320 319 319 319 318 317 316 316 316 316 316 317 318 320 322 324 326 326 327 327 328 328 328 329 330 331 331 330 331 331 331 330 330 330 332 333 332 331 330 329 329 327 327 329 330 329 327 324 323 323 324 325 325 324 323 322 319
325 323 322 324 327 329 329 329 328 328 327 327 327 327 327 327 326 325 324 323 322 321 321 320 320 320 320 319 319 318 319 319 317 313 311 311 312 312 312 312 312 314 316 318 320 321 323 324 326 327 328 328 329 330 330 330 330 330 330 330 330 331 332 332 331 331 331 331 330 329 328 328 329 329 328 325 324 324 325 325 326 325 324 322 320
325 323 324 327 328 328 329 328 328 327 327 326 327 326 326 325 324 323 323 322 321 320 320 319 319 319 318 318 318 318 318 318 316 313 312 313 314 315 314 313 312 312 312 312 313 315 318 320 322 325 327 328 328 328 329 330 329 328 327 328 329 330 331 330 330 330 330 331 331 330 329 329 328 327 327 325 324 324 325 326 326 325 325 323 320
326 323 325 329 330 329 329 328 327 326 326 326 326 326 325 325 324 323 322 321 320 319 318 318 318 318 318 318 317 317 317 317 316 316 315 315 316 316 316 315 315 314 313 312 311 312 313 315 317 320 323 325 326 326 326 327 328 328 328 327 327 329 330 329 328 328 329 330 330 330 330 329 328 327 327 325 324 324 325 325 324 323 323 323 320
328 324 323 327 330 329 328 327 326 325 325 325 325 325 324 323 322 322 320 320 319 318 318 318 318 318 318 317 317 317 316 316 316 316 316 315 316 316 317 317 317 317 316 316 314 313 313 314 315 316 318 321 323 324 324 325 326 326 327 327 327 328 329 328 328 328 329 329 329 329 329 329 328 327 326 325 324 323 323 322 321 321 322 321 320
328 324 323 326 328 328 328 327 325 325 325 324 324 324 322 320 320 319 318 318 317 316 317 318 318 318 317 317 316 316 316 316 315 315 315 315 316 317 318 318 318 318 318 318 317 317 316 316 316 316 316 316 318 319 320 322 323 324 323 324 325 326 326 327 329 329 329 329 329 328 328 328 327 326 325 324 322 321 321 321 320 320 320 320 320
328 325 323 324 326 327 327 326 326 324 324 324 324 323 321 319 319 317 315 315 314 312 313 315 316 316 316 315 315 316 316 316 315 315 315 315 315 316 317 318 318 318 318 318 318 318 319 319 318 318 317 316 316 317 316 317 319 320 320 321 322 324 325 326 326 327 327 327 328 328 327 327 327 326 325 324 322 319 319 319 318 318 318 319 320
328 327 325 324 324 325 325 326 326 325 324 324 324 322 320 319 318 317 315 314 313 312 311 311 312 312 313 314 315 316 316 316 315 315 315 315 315 315 315 316 317 318 317 317 318 318 318 319 319 318 318 317 317 317 317 317 318 318 318 320 321 322 324 326 324 324 324 325 326 327 327 327 326 326 325 323 320 317 317 316 315 316 316 317 318
328 328 327 325 324 323 324 325 326 326 324 324 323 321 320 319 318 316 315 313 312 311 310 310 310 311 313 315 316 316 315 315 315 314 314 314 314 314 314 314 315 316 316 316 316 316 316 317 317 318 318 317 316 316 316 317 317 318 318 320 321 321 322 325 325 324 323 323 325 326 327 326 326 325 323 321 318 316 315 314 313 313 314 315 316
328 328 327 326 325 324 324 324 325 325 325 324 322 320 320 319 317 315 314 312 311 310 310 310 311 312 314 315 315 315 315 314 315 314 313 313 313 313 313 313 313 314 315 315 314 314 315 317 318 318 318 318 317 317 316 316 315 316 317 318 319 319 320 322 326 327 326 325 326 326 326 325 326 324 322 320 319 316 314 312 312 312 312 314 315
326 327 327 327 326 326 325 324 325 325 324 323 321 319 319 319 316 314 312 311 311 311 310 311 312 314 315 315 315 314 314 314 314 314 313 312 312 312 312 312 312 312 313 313 314 314 314 316 317 318 318 317 317 317 317 316 315 316 318 318 317 318 319 320 323 325 326 325 325 326 325 325 325 323 322 320 318 315 313 312 311 311 311 313 314
326 327 328 328 327 327 327 326 325 324 323 322 320 319 319 318 315 313 312 311 311 311 311 312 315 315 315 315 314 314 313 313 313 313 312 312 312 312 312 312 311 312 311 311 311 311 311 312 313 314 314 315 315 315 315 315 315 315 317 318 319 319 319 319 319 321 323 324 323 324 325 325 324 323 322 321 318 315 313 312 311 310 310 312 313
Wind_Speed
9 9 9 8 6 5 5 5 6 12 11 10 11 8 8 9 9 7 8 7 7 8 5 6 10 7 7 4 2 4 5 9 8 1 6 5 5 6 5 0 1 2 4 6 8 8 8 7 7 7 6 5 5 5 6 6 6 5 6 6 5 5 4 4 4 4 4 3 3 2 2 2 2 3 4 5 6 6 7 7 7 8 8 8 8
10 10 9 9 10 11 11 8 5 7 9 12 12 9 10 11 8 7 6 4 5 8 7 5 7 7 6 4 3 4 2 6 10 4 6 4 1 3 3 2 2 3 3 5 7 7 7 7 7 7 6 6 5 5 5 6 6 5 5 5 5 5 4 4 3 3 3 3 2 2 2 1 2 3 4 5 6 7 7 8 8 9 9 10 9
11 10 10 11 13 15 13 10 10 10 9 10 11 9 10 9 6 6 5 5 5 4 5 5 5 7 7 5 5 5 3 5 7 5 6 3 2 2 5 5 3 2 2 4 5 6 6 6 6 6 6 6 5 5 5 6 6 5 5 5 5 5 5 4 3 3 2 2 2 1 1 1 2 3 4 5 6 7 7 7 8 9 10 10 10
11 10 10 11 12 15 13 11 13 15 13 11 11 10 9 8 6 7 7 7 6 3 2 3 4 6 4 5 6 5 5 5 6 6 5 5 2 4 5 6 5 4 2 2 3 5 5 5 5 6 6 6 5 5 5 6 6 5 5 5 5 4 4 4 3 3 2 1 1 0 1 1 2 3 4 6 7 7 7 7 8 10 10 10 9
11 10 10 11 11 13 14 12 12 12 13 12 12 12 10 9 8 8 8 6 4 4 4 3 4 7 5 4 5 5 4 3 4 7 6 7 4 3 5 5 5 5 4 3 2 3 4 4 5 5 6 6 6 6 6 6 6 6 5 5 4 4 4 4 3 3 2 1 1 0 1 2 2 3 4 6 7 7 8 7 8 10 10 10 8
10 10 9 10 11 12 13 14 13 11 12 11 11 11 9 9 8 7 6 5 3 3 4 3 4 8 8 5 3 5 5 4 3 4 6 6 5 3 2 4 4 3 3 4 3 2 3 3 3 4 5 6 7 7 7 7 7 6 6 5 4 4 4 4 3 3 2 2 1 1 1 2 2 3 3 5 6 7 8 8 7 9 10 10 8
9 11 10 10 11 12 12 15 16 15 16 14 12 11 9 8 8 6 4 4 2 3 5 4 4 6 7 5 4 5 7 6 5 5 4 5 7 6 4 3 3 3 3 2 2 3 3 3 2 2 3 4 5 6 7 7 7 6 6 5 5 4 4 4 3 3 2 2 1 1 1 1 2 4 3 4 6 6 8 9 9 9 10 11 10
10 12 12 12 12 12 12 14 14 12 12 13 11 10 9 8 7 6 5 5 4 6 7 6 6 7 6 6 6 7 7 6 7 6 5 5 6 6 7 5 3 3 4 3 2 2 1 2 2 2 2 2 3 4 5 6 7 6 6 6 5 4 4 3 3 3 2 2 1 1 1 2 3 4 4 5 5 6 7 9 10 10 9 10 10
11 11 10 11 11 11 13 13 11 8 7 9 9 7 6 6 6 6 6 7 6 7 8 7 7 7 6 6 6 6 6 5 6 7 7 6 6 7 8 7 7 6 5 4 4 4 3 2 1 2 2 1 2 3 3 4 5 6 5 5 5 4 4 3 2 2 2 1 0 1 2 3 4 5 5 6 6 6 7 8 9 10 10 10 11
11 12 10 10 10 10 12 12 9 8 7 8 9 6 4 5 6 7 7 7 6 7 9 9 8 7 6 6 7 7 6 6 6 6 7 7 7 8 9 7 9 9 7 6 5 5 5 4 3 3 3 2 2 2 2 2 3 4 4 4 4 4 3 2 2 1 1 0 1 2 3 4 4 5 6 7 7 8 9 10 10 11 11 12 13
11 12 12 12 11 9 9 10 7 7 6 7 9 7 5 6 6 7 8 8 6 5 8 9 8 7 6 6 7 7 8 8 7 7 7 8 8 9 10 8 8 8 9 8 7 7 6 6 6 5 4 4 4 3 3 3 3 3 4 4 3 4 3 3 2 2 1 2 2 2 3 4 4 5 6 7 8 9 10 11 12 12 13 13 13
12 13 14 14 14 10 8 9 8 7 6 6 8 7 6 6 6 6 7 7 7 5 5 7 7 7 6 6 7 8 8 8 7 8 8 9 9 9 9 9 8 9 10 9 8 9 8 7 7 6 6 6 6 6 5 5 5 5 5 5 4 4 4 4 3 3 3 3 3 4 4 5 5 6 7 8 9 10 11 11 12 13 14 14 13
13 14 15 16 15 11 8 8 9 8 7 6 7 7 6 6 6 7 7 7 8 6 6 7 8 9 8 8 9 9 8 8 8 9 9 10 10 9 9 10 10 11 10 11 11 10 11 10 8 7 8 8 9 8 7 7 7 7 7 7 6 6 5 5 5 4 4 4 4 5 6 6 7 7 7 8 9 10 10 11 12 12 13 12 12
13 14 16 16 15 14 12 11 11 10 8 7 7 7 7 7 7 8 8 7 7 8 8 8 9 10 9 9 8 7 8 8 8 9 10 12 12 11 10 10 11 11 11 12 12 11 12 12 11 10 9 9 10 9 9 9 9 8 8 8 8 7 7 6 5 5 5 4 5 5 6 6 6 7 7 8 8 9 10 11 11 11 11 12 12
13 14 15 15 14 15 13 13 13 12 10 9 8 8 7 7 8 8 8 8 7 8 9 9 8 9 9 9 8 7 7 7 8 8 9 10 12 12 12 12 12 12 13 12 11 11 11 11 12 13 11 11 12 11 10 9 8 8 8 8 8 7 7 6 6 5 5 5 5 5 5 6 6 7 8 8 9 9 10 11 11 11 11 11 12
12 13 14 15 15 15 14 13 13 13 12 11 9 8 8 8 8 9 9 8 8 9 10 10 9 8 7 8 7 6 6 5 6 8 9 9 11 12 12 12 12 13 12 10 10 13 12 10 11 13 12 13 14 13 12 10 9 9 8 8 7 7 6 5 5 5 6 6 6 6 6 6 7 8 8 9 9 10 10 11 11 11 10 11 12
13 14 14 15 15 15 14 13 13 13 13 12 11 10 10 10 11 10 9 8 8 9 10 11 10 9 10 9 7 6 6 7 6 5 6 7 9 10 11 12 11 11 11 10 11 14 13 11 12 13 13 15 15 14 14 13 11 10 10 9 8 7 7 6 6 6 7 7 7 7 7 7 8 8 9 9 9 9 9 10 11 11 10 11 12
14 17 16 16 16 16 15 13 13 13 12 12 12 12 12 12 12 12 10 10 11 11 11 11 10 10 12 12 10 9 9 8 6 5 5 6 7 8 9 9 9 9 10 10 12 14 13 12 13 15 16 17 16 15 15 15 13 12 11 10 9 8 8 8 7 7 7 7 7 8 8 8 8 9 9 9 9 8 9 10 10 10 10 10 11
16 17 17 15 15 14 14 14 14 13 12 12 13 12 12 12 12 13 12 12 13 13 13 14 12 12 13 13 12 13 11 9 8 7 7 6 5 6 7 8 9 9 10 10 12 14 13 13 14 14 15 16 16 15 16 16 15 14 11 9 9 9 8 8 8 8 8 8 8 8 8 8 9 9 10 9 8 8 9 9 10 10 10 10 10
18 18 16 14 12 11 12 14 14 13 12 13 14 13 13 13 13 13 13 13 13 14 15 16 16 15 14 13 13 14 13 12 11 10 10 10 8 7 8 9 10 12 12 12 13 13 13 13 14 13 12 13 13 13 15 18 17 15 12 10 10 10 9 9 9 8 8 8 8 8 8 8 9 9 9 9 8 8 8 9 9 9 9 10 10
15 15 14 13 11 10 11 12 12 11 11 13 13 12 12 13 13 13 13 13 14 14 15 16 17 16 16 14 13 14 14 12 12 11 12 13 12 10 8 9 11 12 13 14 15 16 16 15 14 12 12 12 12 14 16 18 16 14 14 12 10 10 9 9 9 9 9 9 9 9 8 8 9 9 9 8 8 8 8 8 8 8 9 9 10
13 13 14 13 11 11 11 11 12 12 11 10 10 10 11 11 11 11 12 13 14 14 14 14 14 15 17 17 15 15 15 13 13 13 12 13 14 11 10 11 12 13 13 14 15 17 18 18 17 14 12 11 13 16 15 12 11 13 14 14 13 11 10 10 10 10 11 11 10 9 8 8 8 8 8 7 7 7 7 8 8 8 8 9 10
12 12 13 13 13 12 10 10 11 12 11 10 10 10 11 11 10 10 11 12 13 12 12 13 13 14 15 17 16 15 15 14 14 14 13 13 13 13 12 12 14 14 12 12 14 16 16 17 18 15 10 11 15 16 12 11 11 11 12 14 15 14 13 12 11 11 11 11 10 9 8 8 8 8 8 7 6 6 7 7 7 7 8 9 10
12 12 13 14 14 14 13 12 12 12 11 11 12 12 12 11 11 11 11 11 11 11 11 12 12 13 14 15 15 15 16 16 15 15 14 13 13 14 14 13 15 15 13 12 13 15 14 13 15 13 10 13 15 14 11 11 12 11 11 12 14 15 14 13 12 12 11 11 10 9 8 8 8 8 7 6 6 6 6 6 7 7 8 9 9
13 12 12 13 14 15 14 14 14 13 12 11 13 13 13 12 11 11 11 10 11 11 11 11 11 11 12 13 13 14 14 14 14 15 15 14 14 15 15 14 15 16 15 14 13 14 13 13 12 12 13 16 17 16 14 12 9 8 11 13 14 14 13 13 13 12 12 12 10 9 8 8 8 7 6 6 5 5 5 6 7 7 8 8 8
13 13 12 12 13 14 13 12 13 13 12 12 12 12 12 12 11 11 10 9 10 11 11 11 11 12 12 12 13 13 12 11 12 13 14 14 14 15 16 16 16 17 16 16 15 15 14 13 12 12 16 18 19 19 17 14 12 10 11 14 13 11 11 11 11 12 13 13 11 9 9 9 9 7 7 6 6 5 5 5 6 7 8 8 8
14 13 13 13 13 13 13 13 13 13 12 12 12 12 12 12 11 10 10 9 10 10 10 10 11 11 12 13 13 14 13 12 13 14 14 14 15 15 16 16 17 17 16 14 14 15 13 12 12 13 16 17 17 18 16 15 15 14 13 14 13 11 10 10 10 12 14 13 11 10 10 10 9 8 7 6 5 4 4 5 6 7 8 8 8
15 15 15 15 15 14 14 14 13 13 13 13 12 12 12 12 12 11 10 10 10 10 10 10 10 11 12 13 13 14 15 15 15 16 17 17 16 16 16 17 17 17 16 14 14 14 12 11 12 13 14 15 16 17 17 16 16 15 14 14 14 12 11 11 11 13 14 13 12 11 11 10 10 9 8 6 5 4 4 4 5 7 8 8 7
15 16 17 17 16 16 15 15 15 15 14 14 13 13 13 13 12 12 12 12 11 11 11 11 11 11 12 12 13 13 14 15 16 17 18 18 18 17 17 17 17 16 15 16 17 15 13 12 12 12 11 12 14 15 16 16 16 15 15 14 14 13 12 11 12 14 15 14 12 11 11 11 11 10 8 7 6 4 4 4 5 6 7 7 7
16 16 16 16 17 17 17 16 16 16 15 15 14 13 13 13 12 11 11 11 11 11 11 11 11 11 11 11 12 12 12 13 15 16 17 18 18 18 19 18 18 17 17 17 19 18 16 14 12 12 11 10 11 12 12 12 14 15 16 16 15 13 13 13 14 15 15 14 13 12 11 11 11 11 9 7 6 4 4 4 5 6 7 7 7
18 17 16 16 17 18 18 18 16 16 16 16 15 14 13 13 13 12 11 11 11 11 11 11 11 11 11 11 12 12 12 13 13 14 15 16 17 18 18 18 18 19 18 18 21 20 17 14 12 12 12 10 10 11 10 11 15 18 18 18 16 14 14 15 15 16 16 16 15 13 12 12 12 12 10 8 6 5 4 4 5 5 6 7 6
19 19 18 18 18 18 19 19 18 17 16 17 16 15 15 14 14 13 13 12 12 12 12 12 12 12 11 11 12 12 12 13 13 14 14 14 15 16 17 17 18 19 18 18 22 22 19 17 16 16 15 13 11 11 9 12 17 19 18 18 16 15 16 16 16 17 17 16 16 15 13 12 12 12 11 9 7 6 5 4 4 5 6 6 6
20 20 20 20 19 18 18 18 18 18 17 17 17 17 17 16 15 14 14 13 13 13 13 13 13 12 12 12 12 11 12 13 14 14 14 13 14 14 15 17 18 19 19 20 22 22 20 18 17 18 18 17 14 11 9 12 17 17 18 19 17 15 17 18 18 18 17 17 17 16 15 14 13 13 12 10 8 7 6 5 4 5 6 6 6
21 22 22 21 19 16 15 16 17 18 18 17 17 17 18 18 17 16 16 15 14 13 13 13 12 12 12 13 13 12 13 14 14 14 13 13 14 15 15 16 17 18 17 18 19 21 20 19 17 16 18 18 16 15 13 13 14 15 18 20 19 17 18 19 19 19 19 18 18 18 17 16 14 14 13 11 9 8 7 6 5 4 5 6 6
22 22 21 20 18 16 15 16 17 17 17 16 16 18 18 18 18 17 17 17 16 16 15 14 13 12 12 12 11 11 13 14 14 13 13 14 15 16 16 16 18 18 17 16 17 19 21 20 19 17 17 17 15 15 14 13 13 14 17 20 21 19 20 20 20 20 20 20 20 20 20 18 16 15 13 12 11 9 8 7 6 5 5 6 6
22 22 20 18 17 17 17 17 17 17 17 16 17 18 18 18 18 17 16 17 17 15 14 13 12 12 13 12 9 9 10 11 12 12 12 13 14 15 15 16 18 18 19 19 18 19 20 20 20 19 18 18 16 15 15 14 14 14 16 20 21 21 21 20 20 20 21 22 22 22 22 19 17 16 14 13 12 11 10 8 8 7 6 5 6
23 21 20 19 18 19 19 19 18 18 18 17 17 17 17 16 16 16 16 16 13 12 13 11 10 14 17 15 12 12 11 11 12 12 12 13 15 15 16 16 17 18 19 20 19 19 19 19 19 19 18 18 19 17 15 16 17 17 18 21 22 23 23 22 22 22 22 22 22 23 24 21 18 17 16 15 13 12 12 10 9 9 7 6 6
22 20 19 20 20 21 21 21 20 19 18 17 17 17 16 16 15 15 15 15 13 13 15 13 12 16 18 16 14 15 15 16 17 17 17 18 19 19 18 18 17 17 17 18 19 19 20 20 19 19 17 17 20 19 16 16 16 17 21 24 23 23 24 23 24 25 23 22 21 21 24 23 20 19 18 17 16 15 14 12 11 10 9 7 6
22 20 20 21 21 22 22 21 20 19 18 17 17 17 18 17 15 14 15 16 16 17 18 17 17 17 16 14 15 16 17 18 19 20 21 22 23 22 22 22 21 19 18 18 18 18 19 20 21 20 20 19 20 20 17 16 15 17 21 23 22 23 25 24 25 26 25 25 23 21 22 23 22 21 20 19 18 17 16 15 13 12 10 8 7
26 24 23 23 21 22 22 21 19 19 19 18 18 19 19 17 16 17 16 15 15 17 17 16 15 14 13 13 14 14 14 15 16 19 20 22 23 24 24 25 25 24 24 22 21 20 20 20 20 20 20 19 19 18 16 16 15 15 19 21 21 24 26 26 26 27 27 27 25 22 22 23 24 24 23 22 21 20 18 17 15 14 13 10 8
26 25 24 23 22 23 23 21 19 19 19 19 19 18 18 16 15 15 14 12 12 12 11 11 12 13 12 12 13 13 12 13 16 18 19 19 20 22 23 24 26 27 28 28 26 24 23 22 20 19 18 18 18 17 16 16 15 14 15 18 21 25 28 27 27 28 27 26 26 24 22 22 25 27 26 25 24 22 20 19 18 16 15 12 10
25 25 23 23 24 23 23 21 19 18 18 19 19 17 17 18 16 14 14 16 16 14 14 14 14 13 12 12 12 12 13 14 17 17 16 16 17 18 20 22 23 25 27 29 30 29 26 25 22 19 17 16 16 16 16 16 16 14 13 16 19 23 25 26 26 27 28 26 26 25 23 23 24 27 28 27 26 25 22 20 19 18 16 14 12
27 26 25 25 24 23 21 19 18 19 20 21 21 20 19 19 17 17 16 17 17 16 15 14 12 12 12 12 12 13 14 15 16 17 16 16 16 17 18 20 19 20 21 23 26 28 28 27 26 22 18 16 16 16 15 16 16 14 12 15 18 21 22 21 22 26 29 28 26 26 26 25 25 27 29 29 28 26 24 22 21 19 18 16 14
30 28 27 27 25 24 23 21 21 23 24 25 25 24 22 20 19 18 16 14 14 12 11 11 12 12 12 12 13 15 15 16 16 17 17 16 16 16 17 17 15 15 15 16 18 20 23 25 26 25 23 20 18 16 14 15 16 16 15 14 16 19 20 19 20 24 27 27 26 26 28 27 26 28 31 30 29 28 26 24 22 21 19 18 16
30 29 28 27 26 26 26 26 26 27 27 27 26 25 23 21 19 19 17 16 15 13 12 12 13 13 13 15 16 17 17 16 16 17 17 17 16 16 16 17 16 15 15 13 13 15 17 19 21 23 24 23 22 21 20 19 18 19 19 18 17 18 18 17 18 21 25 27 27 27 29 27 26 27 31 31 31 30 28 26 24 22 21 20 18
30 29 29 28 28 28 28 29 30 29 28 28 27 25 23 22 22 21 20 19 18 16 15 15 15 15 16 17 18 18 19 19 17 17 18 18 18 17 16 16 15 15 15 13 13 13 13 15 17 19 20 21 22 23 23 23 22 22 22 21 19 20 19 18 18 18 21 26 28 29 30 29 26 26 30 32 33 32 30 28 26 24 23 22 20
30 31 30 30 30 30 30 30 32 32 31 30 29 26 23 24 24 22 20 19 17 16 17 17 17 17 17 17 18 19 20 19 18 17 18 19 20 20 20 19 16 14 14 15 15 15 15 16 17 18 18 18 19 19 20 21 22 22 22 21 20 19 18 18 19 19 20 24 29 30 30 30 27 26 30 34 35 34 32 29 27 27 25 24 22
29 31 31 32 32 32 31 32 33 33 33 32 31 26 22 23 24 22 19 18 16 16 16 17 17 17 17 17 18 19 19 20 19 19 20 21 21 21 22 22 21 18 18 18 19 18 17 17 17 18 18 17 17 17 17 19 20 20 21 22 22 21 19 17 19 22 23 25 28 30 31 31 28 26 29 34 36 36 33 31 30 29 28 26 24
28 30 32 33 33 32 32 32 33 35 35 34 31 26 23 23 23 21 19 17 16 16 16 17 17 17 16 16 18 19 20 22 22 22 22 23 23 23 23 25 25 23 22 21 19 17 14 14 15 15 15 16 17 17 17 18 20 21 22 24 24 24 23 21 19 21 23 24 27 28 30 31 29 26 28 32 36 36 34 33 33 32 30 28 27
27 28 30 32 32 32 33 32 33 36 38 36 32 27 25 24 23 21 19 17 17 17 17 17 16 14 15 17 19 21 23 24 24 23 21 22 23 23 23 24 25 24 21 20 20 18 15 15 15 15 16 18 20 20 20 20 20 20 21 23 23 24 26 26 24 23 23 25 27 26 28 30 29 29 30 31 33 36 35 34 35 35 33 31 29
26 27 28 30 31 32 33 32 32 35 38 37 33 28 26 26 24 21 19 18 19 18 18 17 15 14 16 18 19 20 21 23 24 22 20 20 21 22 22 22 22 22 21 21 23 22 19 17 18 19 19 20 21 22 23 23 23 22 22 22 22 23 26 28 28 27 26 27 28 27 29 31 31 32 32 31 32 34 34 35 36 36 35 33 31
Wind_Direction
211 203 201 187 153 151 188 222 189 172 168 167 188 172 151 195 199 194 194 179 175 167 185 191 163 183 202 171 157 148 162 170 146 142 273 283 285 307 324 205 143 168 165 159 159 152 150 149 147 144 139 141 145 155 153 144 144 146 143 141 141 140 142 144 142 142 138 132 124 106 89 62 33 19 14 12 6 6 7 5 9 7 3 0 359
216 205 199 186 172 171 189 212 206 194 176 175 197 185 180 199 184 190 200 183 195 175 167 187 170 166 176 164 169 184 189 166 145 155 260 262 277 323 19 86 125 150 168 168 164 159 156 155 154 149 146 147 151 160 153 145 146 148 147 144 146 146 146 149 148 146 139 132 126 113 98 61 36 20 14 12 7 10 10 10 16 13 8 6 6
217 203 199 196 190 179 177 192 194 203 195 183 200 194 186 194 189 192 194 204 216 200 173 178 160 140 159 188 182 206 208 151 146 171 234 240 153 91 58 73 92 123 170 179 174 168 164 163 161 158 161 161 166 171 160 153 153 152 152 149 151 151 150 149 144 142 132 126 120 109 85 44 33 23 15 12 8 11 16 19 22 17 14 14 13
216 197 204 209 201 179 166 186 197 199 194 188 197 196 193 192 203 206 202 207 190 194 208 168 166 155 189 209 167 200 212 167 166 173 222 261 186 126 85 78 80 90 126 172 183 182 179 175 173 172 178 182 184 186 178 171 170 167 162 164 166 164 165 161 157 156 149 150 139 114 56 37 33 28 13 11 13 15 21 24 22 16 17 20 21
211 196 212 217 207 181 169 188 202 201 191 190 195 191 193 194 200 213 212 207 168 182 203 181 188 181 211 236 165 185 214 209 187 166 194 252 250 149 123 104 88 91 103 119 150 185 189 184 192 195 197 203 204 201 196 191 191 186 178 185 191 190 194 188 183 180 179 188 177 172 78 52 40 33 15 12 17 21 23 18 17 15 15 19 21
202 201 216 219 209 189 183 189 189 190 185 188 199 189 191 199 198 208 209 198 174 189 198 195 194 178 183 206 192 186 199 229 241 194 197 226 252 247 174 151 136 114 103 113 117 129 148 160 185 196 205 213 214 211 205 203 206 203 190 195 208 213 218 215 206 196 189 193 173 138 89 63 38 27 18 14 16 22 18 7 12 16 13 9 3
211 209 207 212 214 198 196 197 189 186 181 179 192 190 190 193 190 204 196 178 198 202 195 194 190 186 184 190 202 207 206 200 208 244 243 218 229 244 253 227 178 177 179 145 120 121 120 129 147 157 186 201 208 210 207 204 208 208 196 192 206 219 225 222 210 198 182 176 156 122 82 42 18 14 19 19 15 17 10 5 9 12 10 1 356
224 217 210 210 209 201 204 207 197 190 177 173 183 192 196 191 185 201 186 171 215 220 209 205 191 190 200 212 211 212 219 197 186 218 243 243 237 232 243 256 252 229 210 201 196 186 144 135 151 141 154 164 180 193 193 194 196 199 192 184 194 209 215 212 199 187 172 157 140 100 17 353 354 3 11 16 12 8 1 3 6 3 1 356 356
229 229 230 222 207 200 208 212 205 196 187 180 186 194 202 200 192 204 199 188 217 235 225 218 209 198 197 224 228 218 231 217 191 200 214 232 241 238 240 238 246 259 250 235 228 217 216 221 210 198 204 180 171 176 173 177 178 179 183 179 183 193 203 207 199 182 168 149 97 356 344 344 349 351 354 360 1 356 352 356 359 356 352 348 346
229 233 242 235 222 212 211 217 207 196 204 197 195 201 207 220 215 217 223 218 229 241 225 215 220 220 203 216 227 219 230 234 216 210 217 225 225 236 248 239 237 252 262 258 248 237 229 238 247 234 235 234 220 218 202 192 176 172 184 186 182 189 200 216 226 202 181 263 313 334 341 344 346 343 341 345 346 346 347 349 351 347 341 341 341
225 231 240 236 230 228 217 222 220 209 218 203 199 208 217 232 234 228 231 234 237 231 221 220 224 223 214 222 234 233 234 236 229 216 222 233 226 228 241 245 246 251 262 267 257 256 252 242 250 256 249 243 243 244 240 242 236 218 214 212 206 205 212 230 249 261 278 294 303 312 329 335 336 333 331 335 338 340 341 342 342 338 335 338 340
225 228 238 234 230 232 216 213 224 234 236 214 205 204 205 223 232 231 227 230 232 225 221 221 217 221 231 242 253 260 255 254 253 235 229 236 232 230 234 238 248 251 255 260 257 267 277 264 256 262 260 252 250 250 252 254 250 249 247 242 241 239 242 251 261 281 291 300 308 310 318 322 325 327 327 330 333 334 335 335 334 332 332 334 333
224 227 233 230 228 233 227 216 222 235 238 226 218 206 202 215 221 222 225 226 227 228 230 226 227 239 249 252 257 264 266 271 267 252 250 249 241 236 229 226 241 249 245 246 251 260 269 271 272 271 264 254 249 251 255 258 255 254 255 254 255 256 260 268 274 282 290 301 311 311 312 316 321 323 324 326 328 329 329 328 328 327 327 327 325
222 226 228 225 225 229 234 232 226 232 237 231 227 218 208 212 214 217 227 231 227 228 233 233 240 250 257 258 258 263 269 270 262 257 258 255 250 247 240 231 237 243 236 239 248 253 256 265 276 279 276 270 264 258 255 259 261 259 260 260 259 262 265 271 277 279 285 300 311 313 315 317 321 321 319 321 322 323 323 322 324 324 320 319 318
221 222 225 225 223 224 229 233 230 230 231 230 228 220 209 211 220 224 229 231 229 230 230 231 240 251 263 267 267 277 288 279 260 259 262 257 253 253 249 241 241 241 234 233 238 246 251 257 266 270 274 277 272 263 254 256 263 262 260 260 258 261 264 268 273 276 284 298 307 312 315 316 316 316 315 316 317 317 318 319 319 316 312 313 314
220 216 220 222 222 223 225 229 231 227 222 223 223 217 210 214 227 231 228 224 223 229 229 233 240 243 256 267 271 280 292 285 267 264 263 258 255 257 254 248 248 246 243 238 227 234 245 249 255 259 266 271 266 263 259 254 259 260 253 252 253 255 255 260 268 273 281 289 298 305 308 311 312 311 310 310 312 312 313 314 312 310 308 308 309
207 200 207 216 219 221 221 222 226 225 221 219 219 219 214 215 228 233 227 215 214 225 231 234 239 238 245 255 260 261 258 264 275 275 264 260 259 260 255 250 249 243 245 246 228 232 241 239 244 249 255 262 260 262 263 257 256 252 248 249 249 249 252 259 267 271 276 280 287 293 296 303 306 307 307 307 307 309 310 309 309 310 309 307 308
196 195 201 208 212 215 215 215 218 221 221 217 215 219 217 216 225 228 223 215 213 221 228 232 234 233 238 243 242 247 254 257 264 266 264 265 265 259 253 252 254 248 250 251 242 242 243 236 240 243 247 254 257 258 258 257 256 249 247 249 246 250 257 262 267 268 269 272 276 280 286 294 298 302 304 303 304 306 306 305 307 310 310 309 312
194 200 202 202 206 210 210 210 210 213 218 215 212 217 216 215 223 224 221 220 219 222 226 230 232 230 234 240 239 242 251 254 252 262 271 273 271 264 261 262 261 257 255 255 251 247 242 241 246 248 249 253 255 257 252 251 255 252 252 250 244 249 259 265 268 266 264 264 265 268 276 285 292 299 301 299 301 301 301 302 304 306 308 311 313
194 196 199 204 206 206 210 211 208 207 208 208 209 211 209 205 209 215 217 218 220 224 226 229 231 233 237 238 235 235 242 250 254 260 267 271 272 267 266 269 265 261 258 256 255 251 248 250 250 250 253 253 253 258 253 246 249 251 252 249 246 250 256 263 266 264 260 255 254 259 266 278 288 294 294 292 295 296 296 299 300 304 308 310 312
204 198 200 208 208 203 208 211 208 210 209 206 206 205 206 207 208 216 224 223 220 222 228 231 230 233 235 234 231 230 235 246 254 257 260 267 273 272 270 271 267 263 261 259 258 258 258 256 254 254 255 255 258 263 256 247 247 252 253 253 255 256 260 265 265 262 256 245 244 249 257 271 281 285 283 284 288 290 292 297 300 304 309 313 314
216 209 207 211 215 210 206 204 202 209 214 211 207 204 212 219 222 232 236 231 226 226 232 237 235 233 233 233 236 236 237 243 248 251 253 258 266 271 272 271 272 269 266 266 266 264 260 256 255 255 254 257 258 260 264 266 266 265 263 260 259 261 264 264 260 256 249 239 237 243 252 266 273 272 273 276 280 285 291 297 302 307 313 316 316
217 213 208 209 215 216 214 209 204 207 211 210 209 211 219 225 230 239 239 234 236 238 240 242 244 243 237 237 242 243 241 242 243 245 247 251 260 270 271 273 278 277 272 272 272 268 261 255 253 252 254 260 256 257 272 288 277 265 261 254 253 259 262 259 257 253 246 237 235 241 250 260 264 263 266 269 276 283 290 297 304 312 318 318 317
217 216 211 207 208 210 212 211 209 212 212 208 207 211 219 223 227 234 235 236 242 248 248 244 244 246 244 243 246 247 245 244 244 245 245 246 253 262 264 270 277 278 280 282 279 274 267 260 258 258 263 264 263 271 280 283 279 266 256 248 248 259 264 262 262 257 248 239 236 243 248 253 256 256 259 261 268 280 288 299 308 315 320 319 317
216 217 214 211 210 209 207 205 207 212 215 212 209 213 219 219 220 226 231 235 237 241 245 242 243 246 245 244 243 245 248 246 244 245 247 247 251 257 258 264 271 275 281 282 278 276 270 265 265 260 261 263 268 278 272 267 279 272 255 251 249 258 264 262 262 257 249 243 240 244 246 248 249 247 249 253 260 273 285 298 309 318 323 320 317
215 216 212 211 210 209 207 204 204 208 212 214 212 214 217 218 221 226 230 232 230 232 237 242 248 250 248 246 244 245 247 244 242 243 246 248 251 256 258 262 265 266 269 270 274 278 270 265 264 249 249 258 265 270 262 253 264 269 262 258 251 252 257 254 254 252 246 241 239 242 243 243 244 240 239 245 253 267 285 299 314 324 323 319 318
214 213 211 209 207 207 205 203 204 206 209 211 212 214 216 219 225 230 231 231 230 234 240 245 249 252 253 252 250 250 248 244 242 242 247 251 252 255 258 263 266 265 265 265 271 278 273 267 266 250 248 259 267 268 259 249 258 266 267 261 247 242 245 243 244 243 239 236 236 239 240 238 236 232 232 239 250 267 289 305 321 327 323 317 317
217 214 213 210 207 207 205 205 206 207 210 212 213 215 219 222 225 227 230 232 234 239 244 248 251 254 256 255 254 255 254 251 249 247 248 252 253 252 255 259 263 265 269 268 263 266 266 262 266 261 256 262 267 263 255 250 254 258 264 263 248 237 237 236 234 232 231 232 233 234 236 236 233 229 230 236 247 265 291 309 323 328 323 318 315
220 220 220 215 212 211 210 211 211 212 214 216 216 219 222 224 224 226 233 237 241 246 250 252 254 256 255 255 256 257 257 256 256 255 253 253 253 255 259 260 261 263 268 271 267 263 261 260 270 277 268 264 266 259 252 250 246 245 257 265 254 238 235 234 228 226 227 228 228 228 230 233 231 227 226 232 243 261 288 309 324 327 325 321 317
217 221 223 221 220 218 215 217 218 220 222 223 225 226 228 231 230 232 237 243 247 248 251 253 254 257 259 260 262 263 263 261 260 261 260 259 257 258 261 262 263 265 263 265 268 266 266 267 273 281 277 272 265 252 248 245 235 238 256 265 256 239 232 231 225 223 225 227 230 232 229 231 232 227 226 230 238 256 280 303 321 328 330 325 318
217 217 221 223 224 224 222 222 221 224 229 230 230 230 234 238 238 239 241 243 248 249 251 254 255 259 261 263 266 268 269 268 267 266 264 263 262 261 262 260 261 264 263 264 266 267 269 270 272 282 288 284 266 253 253 246 236 243 256 258 248 233 228 228 221 218 223 228 235 236 232 232 234 231 228 229 237 251 269 296 318 328 332 327 318
225 222 223 225 227 228 228 228 226 226 230 234 233 231 234 238 238 241 243 245 251 253 253 256 257 260 261 263 266 268 271 270 268 268 266 266 265 262 263 261 258 261 265 266 266 266 267 265 268 279 285 281 271 264 256 242 239 243 247 247 240 230 229 228 221 218 222 228 232 233 232 234 236 235 232 230 236 247 262 287 312 329 331 325 316
230 228 230 234 234 233 234 234 233 231 231 235 237 236 236 238 239 242 243 246 250 253 256 261 262 263 262 260 261 262 266 270 270 269 269 269 268 265 265 263 260 261 263 263 265 269 271 271 273 278 281 279 274 266 247 236 242 241 233 235 236 231 229 229 226 224 224 226 229 230 232 234 235 235 232 230 234 244 259 279 304 324 328 323 315
233 233 234 235 233 230 232 237 237 234 236 239 242 243 241 241 242 243 245 245 246 247 249 250 251 256 261 263 265 263 261 263 266 269 268 265 266 268 270 269 267 265 263 262 266 272 276 278 279 280 282 280 275 271 258 235 235 238 230 233 238 233 229 229 230 230 229 230 230 230 232 233 233 233 231 229 232 240 251 271 294 312 323 322 313
236 237 237 236 234 231 229 234 237 237 238 238 240 245 246 245 243 243 245 246 245 243 244 249 257 262 263 264 271 274 268 263 263 265 266 266 269 271 270 270 271 270 269 270 272 276 279 280 279 279 280 279 277 275 262 234 226 238 237 237 239 236 233 232 232 234 236 236 236 234 234 233 232 231 230 229 232 239 250 265 282 295 312 318 312
238 240 241 238 237 237 233 234 238 240 238 235 238 243 246 246 244 240 241 244 246 245 245 255 263 255 246 247 253 263 268 269 269 269 269 271 273 273 271 268 271 275 278 279 279 280 281 279 277 279 279 280 279 275 267 255 246 240 234 237 241 238 235 234 235 236 239 241 240 238 236 234 233 230 229 229 233 240 246 257 273 283 295 308 307
233 237 241 238 235 237 238 238 238 238 238 235 235 239 242 244 240 233 233 237 240 240 235 234 238 236 237 242 249 255 260 262 265 268 270 271 272 272 273 273 276 279 278 277 277 278 278 277 279 283 282 280 280 277 273 266 254 241 233 235 239 238 233 233 237 238 240 242 241 238 234 232 229 226 226 228 231 238 243 249 262 272 280 291 298
227 230 238 243 241 240 240 243 241 237 237 239 237 237 239 241 238 233 232 231 229 233 232 229 235 245 248 250 254 258 262 264 267 271 271 270 270 270 273 275 277 276 275 276 278 277 275 274 278 282 281 280 283 283 279 267 255 248 240 233 232 237 235 233 235 236 237 242 243 240 237 231 225 222 223 226 228 233 239 244 252 262 269 275 285
233 230 231 236 244 245 242 240 241 239 239 242 243 239 236 238 238 234 231 229 229 234 239 239 243 250 256 262 265 267 271 274 276 277 275 273 273 273 273 274 274 274 274 277 279 278 274 273 276 279 280 282 282 281 280 272 262 255 246 235 231 235 233 229 232 235 237 239 241 241 239 233 225 222 222 223 227 231 235 240 244 252 259 263 270
237 235 233 234 239 243 241 236 237 241 240 239 240 240 237 237 239 238 238 240 244 251 257 256 255 259 265 271 275 278 279 277 274 274 276 278 278 276 274 271 270 269 269 270 273 276 276 276 278 280 280 279 278 278 280 276 268 257 248 244 242 238 231 227 232 237 239 241 242 243 243 235 226 223 223 223 224 229 234 238 241 247 253 256 260
241 239 237 234 231 233 240 240 234 237 239 235 235 237 235 231 233 239 241 239 244 255 264 261 259 263 268 272 277 280 281 279 280 284 287 286 285 283 279 274 271 269 266 265 267 270 272 274 278 282 282 279 277 281 286 283 277 268 256 253 251 240 230 226 230 235 238 241 243 244 245 241 231 225 225 224 225 228 232 238 243 245 248 252 254
241 237 230 228 226 229 238 239 231 231 233 230 229 229 227 223 223 227 228 226 231 239 247 251 257 266 274 279 284 287 288 290 295 299 299 295 291 290 288 286 283 278 272 269 267 267 268 269 271 276 283 285 284 285 288 288 285 276 263 261 261 247 230 221 223 231 237 239 239 243 246 244 237 230 228 227 227 229 232 237 242 244 246 249 249
236 236 231 227 225 228 231 229 225 226 224 223 222 220 221 224 224 226 231 237 243 249 252 256 264 272 278 284 288 289 294 299 302 304 303 299 296 296 299 301 300 291 282 276 271 268 267 267 266 266 269 279 285 287 291 297 301 300 285 273 271 261 242 227 221 227 236 237 236 241 247 245 240 236 233 231 230 230 233 236 239 240 242 245 245
233 237 235 230 227 228 227 222 222 223 224 226 225 223 225 230 231 232 236 240 245 251 256 260 265 271 277 283 285 288 293 299 303 306 308 307 306 305 304 304 305 301 295 289 284 278 275 272 269 266 263 264 266 270 279 291 298 303 297 283 277 271 259 252 243 235 237 241 240 243 248 249 246 240 235 232 231 231 233 234 235 237 239 241 242
234 237 239 236 231 230 227 222 222 224 227 231 232 231 231 229 227 230 231 233 240 249 254 257 263 269 273 276 279 283 286 286 290 298 302 301 300 301 301 298 296 295 294 293 291 289 286 282 278 273 270 266 264 261 263 269 272 278 284 284 285 282 273 272 265 246 239 245 247 247 250 251 250 243 235 232 231 231 231 231 232 234 236 237 240
237 239 241 238 234 233 230 226 225 225 228 233 234 234 234 229 226 227 229 234 244 251 253 254 259 264 267 273 278 281 284 285 285 291 297 298 294 291 293 296 298 297 293 290 287 285 287 288 287 284 278 273 272 269 266 265 264 266 272 275 278 281 277 276 274 260 249 252 251 248 249 252 252 246 238 234 232 229 230 230 230 232 233 234 237
239 242 241 238 237 238 237 233 229 227 229 232 234 237 240 238 233 230 232 238 245 250 253 257 263 268 273 277 280 282 287 289 286 286 290 293 293 291 287 285 287 292 293 290 287 284 285 286 288 290 288 281 278 276 271 269 266 263 263 263 264 268 271 272 269 259 253 254 252 247 247 251 253 247 240 236 232 228 227 227 227 229 231 231 233
235 238 238 237 238 241 242 239 232 230 232 233 234 240 244 238 234 234 234 236 239 244 251 258 265 272 276 277 277 279 284 287 288 289 290 290 289 290 288 283 279 278 276 276 279 280 282 287 290 294 297 293 287 282 276 272 270 266 261 258 254 254 257 263 265 258 253 251 250 246 244 246 251 247 240 238 235 231 226 224 224 225 227 229 230
233 234 233 234 236 240 244 243 236 233 235 235 236 241 241 233 232 233 230 229 234 242 250 258 265 272 276 279 283 288 291 290 288 289 294 295 291 289 289 287 285 281 275 275 281 281 274 278 287 293 294 290 285 281 276 270 269 268 264 259 255 252 252 253 251 251 250 247 245 244 241 243 248 245 238 237 238 235 227 221 223 224 224 227 228
235 237 234 233 235 238 241 242 239 236 235 235 237 240 237 231 229 227 224 228 235 241 248 257 266 276 280 283 288 294 296 291 285 285 293 297 294 291 289 288 287 284 276 273 279 277 263 258 263 266 270 273 274 275 276 272 269 266 263 262 260 256 253 249 245 246 251 251 248 245 241 241 242 239 234 232 235 236 230 224 224 225 224 225 226
235 236 235 234 235 235 237 240 238 235 234 235 238 237 232 229 226 222 223 228 233 240 249 257 267 276 281 283 286 292 295 291 285 285 291 296 294 290 287 285 287 289 285 279 277 277 272 267 265 266 270 275 277 279 281 281 277 271 265 264 263 260 256 251 247 248 253 254 252 248 242 240 238 237 236 231 229 232 230 225 225 226 226 227 226